Retour au catalogue

MARECS A

ActifCommunicationsMEO
NORAD 13010·PAYLOAD·🇪🇺 EU

Lancé Dec 20, 1981 depuis Guiana Space Centre

Loading…

Prochains Passages (prochaines 24 heures)

TLE

FraisSource: Space-Track

Époque: Sep 14, 2026, 14:03 UTC

1 13010U 81122A   26257.58547308 -.00000250  00000-0  00000-0 0  9999
2 13010  11.5118 328.9361 0120050 268.0504 116.5312  0.95040117112212

Suivez MARECS A en temps réel avec AllMySat

Download on the App Store